Terug naar catalogus

KUIPER-00420

ActiefCommunicatieLEO
NORAD 68932·PAYLOAD·🇺🇸 United States

Gelanceerd Apr 30, 2026 vanaf Guiana Space Centre

Loading…

Volgende Passages (komende 24 uur)

TLE

VersSource: CelesTrak SupGP

Epoch: Sep 14, 2026, 21:27 UTC

1 68932C 26098P   26257.89416667  .00003321  00000+0  43478-3 0  2576
2 68932  51.9013   8.9470 0000508 100.1182 243.2694 14.79916974    11

Volg KUIPER-00420 in realtime met AllMySat

Download on the App Store